Regional Weather Roundup
Issued by NWS Jackson, KY

Home | Current Version | Previous Version | Graphics & Text | Print | Product List | Glossary On
Versions: 1 2 3 4 5 6 7 8 9 10 11 12 13 14 15 16 17 18 19 20 21 22 23 24 25 26 27 28 29 30 31 32 33 34 35 36 37 38 39 40 41 42 43 44 45 46 47 48 49 50
000
ASUS43 KJKL 220611
RWRJKL

EAST KENTUCKY HOURLY WEATHER ROUNDUP
NATIONAL WEATHER SERVICE JACKSON KY
200 AM EDT TUE JUL 22 2014

NOTE: "FAIR" INDICATES FEW OR NO CLOUDS BELOW 12,000 FEET WITH
NO SIGNIFICANT WEATHER AND/OR OBSTRUCTIONS TO VISIBILITY.

* THESE REPORTS ARE NOT UNDER NWS QUALITY CONTROL AND MAY NOT
  REPORT WEATHER SUCH AS PRECIPITATION AND FOG.

KYZ079-080-083-085-087-088-110-112-115-119-120-220700
...EASTERN KENTUCKY...

CITY           SKY/WX    TMP DP  RH WIND       PRES   REMARKS
JACKSON        PTCLDY    75  67  76 CALM      30.12S
6HR MIN TEMP:  75; 6HR MAX TEMP:  80;

LONDON         PTCLDY    73  69  87 CALM      30.12R
6HR MIN TEMP:  73; 6HR MAX TEMP:  85;

SOMERSET*      PTCLDY    72  72 100 CALM      30.10F
MONTICELLO*    PTCLDY    69  69 100 CALM      30.11S FOG
6HR MIN TEMP:  69; 6HR MAX TEMP:  85;

WILLIAMSBURG*    N/A     73  73 100 CALM      30.11
MIDDLESBORO*   PTCLDY    71  69  93 CALM      30.13S
6HR MIN TEMP:  71; 6HR MAX TEMP:  84;

HARLAN APT*    CLOUDY    70  70 100 MISG      30.15R
HAZARD APT*    CLEAR     72  72 100 CALM      30.12
BLACK MTN*       N/A     64  63  94 E5          N/A
PIKEVILLE APT* CLEAR     75  66  73 SE3       30.14
BIG SANDY*     PTCLDY    71  70  97 CALM      30.12S
6HR MIN TEMP:  71; 6HR MAX TEMP:  82;

MOREHEAD APT*    N/A     73  70  88 CALM      30.13S
$$

KYZ035-036-041-042-044-050-067-078-099-220700
...CENTRAL KENTUCKY...

CITY           SKY/WX    TMP DP  RH WIND       PRES   REMARKS
MT STERLING*   PTCLDY    70  70 100 CALM      30.13S
FLEMING/MASON* CLEAR     72  70  94 E3        30.12S
DANVILLE*      CLEAR     68  68 100 CALM      30.11F
RICHMOND*      MOCLDY    72  68  88 CALM      30.10S
LEXINGTON      PTCLDY    73  68  84 CALM      30.11S
6HR MIN TEMP:  72; 6HR MAX TEMP:  85;

FRANKFORT      CLEAR     69  66  90 CALM      30.09S
6HR MIN TEMP:  69; 6HR MAX TEMP:  85;

$$

KYZ091>093-OHZ055-061-077-WVZ005-015-034-035-042-220700
...SOUTHERN OHIO/WEST VIRGINIA...

CITY           SKY/WX    TMP DP  RH WIND       PRES   REMARKS
COVINGTON      CLEAR     75  66  73 CALM      30.11S
COLUMBUS       CLEAR     73  67  81 CALM      30.10F
DAYTON         CLEAR     71  64  78 CALM      30.12F
WILMINGTON     CLEAR     66  64  93 NE3       30.12S FOG
HUNTINGTON     CLEAR     71  71 100 E3        30.09F FOG
CHARLESTON     PTCLDY    71  71 100 CALM      30.11F
PINEVILLE*     PTCLDY    68  68 100 MISG      30.22S
BECKLEY        PTCLDY    67  63  87 SE3       30.22S
BLUEFIELD      PTCLDY    69  63  81 CALM      30.24S
$$

VAZ002-007-008-TNZ017-027-036-066-071-220700
...SOUTHWEST VIRGINIA/EAST TENNESSEE...

CITY           SKY/WX    TMP DP  RH WIND       PRES   REMARKS
WISE*          PTCLDY    70  63  78 S6        30.22S
JONESVILLE*      N/A     68  68 100 CALM      30.17R
ABINGDON*      MOCLDY    72  66  82 E3        30.19S
BRISTOL        MOCLDY    68  64  87 CALM      30.15F
KNOXVILLE      CLOUDY    74  71  91 NW3       30.09F
OAK RIDGE      MOCLDY    76  72  87 CALM      30.12R
CROSSVILLE     CLEAR     68  66  93 CALM      30.16R
NASHVILLE      PTCLDY    75  71  87 CALM      30.07S
$$

...KEY TO REMARKS...
VSB - VISIBILITY IN MILES
WCI - WIND CHILL INDEX
HX  - HEAT INDEX

$$


USA.gov is the U.S. government's official web portal to all federal, state and local government web resources and services.